COSMOS 2457 (733) (36112 NORAD) Tracking and Keplerian Element Data

This shows tracking and keplerian element data for the satellite.

Feedback or suggestion? Click here.




ElementValue
Catalog36112
NameCOSMOS 2457 (733)
Epoch Orbit6685
Epoch Day198.59225473
Epoch Year2018
RAAN169.9723
Inclination64.1708
Eccentricity0.0005697
Argument of Perigee195.0475
Mean Anonmoly181.2175
Mean Motion2.13101648
Decay Rate6.2E-07
L11 36112U 09070B 18198.59225473 .00000062 00000-0 00000-0 0 9991
L22 36112 64.1708 169.9723 0005697 195.0475 181.2175 2.13101648 66852

Live tracking and technical data element details for COSMOS 2457 (733) (NORAD 36112). COSMOS 2457 (733) can be tracked NOW for your location showing map with azimuth and elevation plus other details from your city location.

Track the satellite on the map from your city or location and see movement details for azimuth, elevation, latitude, longitude, range, height, and movement on the map or in text.







IsCatalogInMostPopularTable: catalog: 36112, numindb: 41
Update: records affected: 1



GetName: 36112 COSMOS 2457 (733)

Hit Count: updated at: Thu, 19 Jul 2018 21:09:57 GMT